Tracking 20748 objects as of 4-Jun-2020
HD Live streaming from Space Station
objects crossing your sky now
Track the most recent launched group of Starlink satellites

CZ-4C DEB

Track CZ-4C DEB now!
10-day predictions


NORAD ID: 44617
Int'l Code: 2018-034J
Perigee: 1,069.6 km
Apogee: 1,156.7 km
Inclination: 63.4 °
Period: 107.4 minutes
Semi major axis: 7484 km
RCS: Unknown
Launch date: April 10, 2018
Source: People's Republic of China (PRC)
Launch site: Taiyaun Space Center, China (TSC)

Note: This is SATELLITE DEBRIS
aabbcc
Your satellite tracking list
Your tracking list is empty




NASA's NSSDC Master Catalog

Two Line Element Set (TLE):
1 44617U 18034J   20155.99199879 -.00000061  00000-0  50918-4 0  9997
2 44617  63.4072  10.4374 0058246   7.0029 353.1796 13.40878606 98675
Source of the keplerian elements: AFSPC